Weather History for LIMH - March, 2014

Change the Weather History Date:

Saturday, March 1, 2014

  Actual Average Record
Temperature  
Mean Temperature 9 °F -  
Max Temperature 13 °F 18 °F 35 °F (2012)
Min Temperature 5 °F 7 °F -9 °F (2004)
Degree Days  
Heating Degree Days 56    
Moisture  
Dew Point 7 °F    
Average Humidity 93    
Maximum Humidity 100    
Minimum Humidity 81    
Precipitation  
Precipitation 0.12 in - - ()
Sea Level Pressure  
Sea Level Pressure 29.29 in    
Wind  
Wind Speed 10 mph ()    
Max Wind Speed 22 mph    
Max Gust Speed 33 mph    
Visibility 0.3 miles    
Events Fog , Snow    
Averages and records for this station are not official NWS values.
T = Trace of Precipitation, MM = Missing Value Source: Averaged Metar Reports

Daily Weather History Graph

Daily Weather History Graph

Search for Another Location

Airport or City:

Trip Planner

Search our weather history database for the weather conditions in past years. The results will help you decide how hot, cold, wet, or windy it might be!

Date:

Astronomy

Mar. 01, 2014 Rise Set
Actual Time 7:08 AM CET 6:15 PM CET
Civil Twilight 6:38 AM CET 6:45 PM CET
Nautical Twilight 6:03 AM CET 7:19 PM CET
Astronomical Twilight 5:29 AM CET 7:54 PM CET
Moon 6:49 AM CET (3/1) 6:47 PM CET (3/1)
Length of Visible Light 12h 06m
Length of Day
11h 07m
New Moon, 0% of the Moon is Illuminated
Mar 1
New Moon
Mar 8
First Quarter
Mar 16
Full
Mar 24
Last Quarter
Mar 30
New

Hourly Weather History & Observations

Time (CET) Temp. Windchill Dew Point Humidity Pressure Visibility Wind Dir Wind Speed Gust Speed Precip Events Conditions
12:00 AM 10 °F - 9 °F 91%  in 0 mi SE 9.2 mph - - Snow Light Snow
12:55 AM 10.4 °F -6.6 °F 8.6 °F 92% 29.33 in 0.1 mi ESE 16.1 mph - N/A Fog , Snow Light Snow
1:00 AM 10 °F - 8 °F 86%  in 0 mi ESE 16.1 mph - - Snow Light Snow
1:55 AM 10.4 °F -4.1 °F 6.8 °F 85% 29.30 in 0.1 mi ESE 11.5 mph 23.0 mph N/A Fog , Snow Light Snow
2:00 AM 10 °F - 7 °F 81%  in 0 mi ESE 11.5 mph - - Snow Light Snow
2:55 AM 10.4 °F -3.3 °F 6.8 °F 85% 29.30 in 0.1 mi SE 10.4 mph 24.2 mph N/A Fog , Snow Light Snow
3:00 AM 10 °F - 7 °F 84%  in 0 mi SE 10.4 mph - - Snow Light Snow
3:55 AM 8.6 °F -1.3 °F 6.8 °F 92% 29.30 in 0.1 mi SE 5.8 mph 17.3 mph N/A Fog , Snow Light Snow
4:00 AM 9 °F - 7 °F 87%  in 0 mi SE 5.8 mph - - Snow Light Snow
4:55 AM 8.6 °F -3.7 °F 6.8 °F 92% 29.30 in 0.1 mi ESE 8.1 mph 21.9 mph N/A Fog , Snow Light Snow
5:00 AM 9 °F - 6 °F 84%  in 0 mi ESE 8.1 mph - - Snow Light Snow
5:55 AM 5.0 °F -5.6 °F 3.2 °F 92% 29.27 in 0.1 mi ENE 5.8 mph - N/A Fog , Snow Snow
6:00 AM 5 °F - 4 °F 92%  in 0 mi ENE 5.8 mph - - Snow Snow
6:55 AM 5.0 °F -9.1 °F 3.2 °F 92% 29.27 in 0.1 mi ENE 9.2 mph - N/A Fog , Snow Snow
7:00 AM 5 °F - 4 °F 93%  in 0 mi ENE 9.2 mph - - Snow Snow
7:55 AM 5.0 °F -9.1 °F 3.2 °F 92% 29.30 in 0.2 mi ENE 9.2 mph - N/A Fog , Snow Light Snow
8:00 AM 5 °F - 4 °F 92%  in 0 mi ENE 9.2 mph - - Snow Light Snow
8:55 AM 5.0 °F -10.8 °F 3.2 °F 92% 29.30 in 0.2 mi East 11.5 mph 23.0 mph N/A Fog , Snow Light Snow
9:00 AM 5 °F - 3 °F 88%  in 0 mi East 11.5 mph - - Snow Light Snow
9:55 AM 5.0 °F -9.1 °F 3.2 °F 92% 29.30 in 0.2 mi ENE 9.2 mph - N/A Fog , Snow Light Snow
10:00 AM 5 °F - 3 °F 88%  in 0 mi ENE 9.2 mph - - Snow Light Snow
10:55 AM 5.0 °F -8.1 °F 3.2 °F 92% 29.30 in 0.2 mi ENE 8.1 mph - N/A Fog , Snow Light Snow
11:00 AM 5 °F - 4 °F 92%  in 0 mi ENE 8.1 mph - - Snow Light Snow
11:55 AM 5.0 °F -8.1 °F 3.2 °F 92% 29.33 in 0.2 mi ENE 8.1 mph 24.2 mph N/A Fog , Snow Light Snow
12:00 PM 5 °F - 4 °F 93%  in 0 mi ENE 8.1 mph - - Snow Light Snow
12:55 PM 6.8 °F -12.4 °F 6.8 °F 100% 29.30 in 0.2 mi East 18.4 mph - N/A Fog , Snow Light Snow
1:00 PM 7 °F - 6 °F 95%  in 0 mi East 18.4 mph - - Snow Light Snow
1:55 PM 12.2 °F -6.7 °F 12.2 °F 100% 29.30 in 0.1 mi East 21.9 mph 33.4 mph N/A Fog , Snow Light Snow
2:00 PM 12 °F - 11 °F 95%  in 0 mi East 21.9 mph - - Snow Light Snow
2:55 PM 12.2 °F -4.8 °F 12.2 °F 100% 29.27 in 0.1 mi East 17.3 mph - N/A Fog , Snow Light Snow
3:00 PM 13 °F - 13 °F 99%  in 0 mi East 17.3 mph - - Snow Light Snow
3:55 PM 14.0 °F -0.8 °F 14.0 °F 100% 29.27 in 0.2 mi ESE 13.8 mph - N/A Fog , Snow Light Snow
4:00 PM 13 °F - 13 °F 100%  in 0 mi ESE 13.8 mph - - Snow Light Snow
4:55 PM 12.2 °F - 12.2 °F 100% 29.27 in 0.2 mi Variable 2.3 mph - N/A Fog , Snow Light Snow
5:00 PM 12 °F - 12 °F 100%  in 0 mi 2.3 mph - - Snow Light Snow
5:55 PM 10.4 °F 0.8 °F 10.4 °F 100% 29.27 in 0.4 mi East 5.8 mph - N/A Fog , Snow Light Snow
6:00 PM 10 °F - 10 °F 97%  in 0 mi East 5.8 mph - - Snow Light Snow
6:55 PM 6.8 °F -6.9 °F 6.8 °F 100% 29.27 in 0.4 mi ENE 9.2 mph - N/A Fog , Snow Light Snow
7:00 PM 8 °F - 7 °F 92%  in 0 mi ENE 9.2 mph - - Snow Light Snow
7:55 PM 6.8 °F -9.3 °F 5.0 °F 92% 29.27 in 0.5 mi ENE 12.7 mph - N/A Fog , Snow Light Snow
8:00 PM 6 °F - 5 °F 95%  in 0 mi ENE 12.7 mph - - Snow Light Snow
8:55 PM 5.0 °F -12.3 °F 5.0 °F 100% 29.27 in 0.5 mi ENE 13.8 mph - N/A Fog , Snow Light Snow
9:00 PM 5 °F - 4 °F 96%  in 0 mi ENE 13.8 mph - - Snow Light Snow
9:55 PM 6.8 °F -9.3 °F 5.0 °F 92% 29.27 in 2.5 mi ENE 12.7 mph - N/A   Scattered Clouds
10:00 PM 6 °F - 6 °F 97%  in 2 mi ENE 12.7 mph - -   Mist
10:55 PM 5.0 °F -13.6 °F 5.0 °F 100% 29.27 in 2.5 mi ENE 16.1 mph - N/A   Mostly Cloudy
11:00 PM 5 °F - 4 °F 96%  in 1 mi ENE 16.1 mph - -   Mist
11:55 PM 5.0 °F -13.6 °F 3.2 °F 92% 29.24 in 0.5 mi NE 16.1 mph - N/A Fog Light Freezing Fog